Time,TemperatureF,DewpointF,PressureIn,WindDirection,WindDirectionDegrees,WindSpeedMPH,WindSpeedGustMPH,Humidity,HourlyPrecipIn,Conditions,Clouds,dailyrainin,SoftwareType,DateUTC
2013-01-21 00:00:00,23.0,2.7,29.93,NNE,18,0.0,0.0,41,0.00,RA,,0.00,WeatherDisplay:10.37,2013-01-21 05:00:00,
2013-01-21 00:05:00,22.6,2.4,29.93,NNE,18,1.0,7.0,41,0.00,RA,,0.00,WeatherDisplay:10.37,2013-01-21 05:05:00,
2013-01-21 00:10:00,22.7,2.5,29.93,NNE,19,0.0,0.0,41,0.00,BKN,,0.00,WeatherDisplay:10.37,2013-01-21 05:10:00,
2013-01-21 00:15:00,22.3,2.1,29.93,North,5,3.0,12.0,41,0.00,BKN,,0.00,WeatherDisplay:10.37,2013-01-21 05:15:00,
2013-01-21 00:20:00,21.8,1.7,29.93,NNW,340,0.0,7.0,41,0.00,BKN,,0.00,WeatherDisplay:10.37,2013-01-21 05:20:00,
2013-01-21 00:25:00,21.9,1.7,29.93,NW,313,3.0,17.0,41,0.00,BKN,,0.00,WeatherDisplay:10.37,2013-01-21 05:25:00,
2013-01-21 00:30:00,21.4,1.3,29.93,NW,317,2.0,12.0,41,0.00,BKN,,0.00,WeatherDisplay:10.37,2013-01-21 05:30:00,
2013-01-21 00:35:00,21.7,1.6,29.93,NW,315,0.0,7.0,41,0.00,BKN,,0.00,WeatherDisplay:10.37,2013-01-21 05:35:00,
2013-01-21 00:40:00,21.4,1.3,29.93,NW,318,3.0,12.0,41,0.00,BKN,,0.00,WeatherDisplay:10.37,2013-01-21 05:40:00,
2013-01-21 00:45:00,21.2,1.1,29.94,NW,324,1.0,7.0,41,0.00,BKN,,0.00,WeatherDisplay:10.37,2013-01-21 05:45:00,
2013-01-21 00:50:00,20.9,0.9,29.94,NNW,328,1.0,8.0,41,0.00,BKN,,0.00,WeatherDisplay:10.37,2013-01-21 05:50:00,
2013-01-21 00:55:00,21.2,1.2,29.94,NW,323,0.0,11.0,41,0.00,BKN,,0.00,WeatherDisplay:10.37,2013-01-21 05:55:00,
2013-01-21 01:00:00,20.8,0.8,29.94,NW,317,0.0,8.0,41,0.00,BKN,,0.00,WeatherDisplay:10.37,2013-01-21 06:00:00,
2013-01-21 01:05:00,20.7,0.7,29.94,West,277,1.0,12.0,41,0.00,CLR,,0.00,WeatherDisplay:10.37,2013-01-21 06:05:00,
2013-01-21 01:10:00,21.4,1.3,29.94,WSW,249,0.0,0.0,41,0.00,CLR,,0.00,WeatherDisplay:10.37,2013-01-21 06:10:00,
2013-01-21 01:15:00,20.6,0.6,29.94,WSW,243,0.0,3.0,41,0.00,CLR,,0.00,WeatherDisplay:10.37,2013-01-21 06:15:00,
2013-01-21 01:20:00,20.6,0.6,29.95,WSW,243,0.0,0.0,41,0.00,CLR,,0.00,WeatherDisplay:10.37,2013-01-21 06:20:00,
2013-01-21 01:25:00,20.4,0.4,29.95,WSW,242,0.0,3.0,41,0.00,CLR,,0.00,WeatherDisplay:10.37,2013-01-21 06:25:00,
2013-01-21 01:35:00,20.0,0.0,29.95,SW,223,0.0,0.0,41,0.00,CLR,,0.00,WeatherDisplay:10.37,2013-01-21 06:35:00,
2013-01-21 01:40:00,20.0,0.0,29.96,SW,223,0.0,0.0,41,0.00,CLR,,0.00,WeatherDisplay:10.37,2013-01-21 06:40:00,
2013-01-21 01:45:00,20.3,0.3,29.96,SW,230,0.0,5.0,41,0.00,CLR,,0.00,WeatherDisplay:10.37,2013-01-21 06:45:00,
2013-01-21 01:50:00,20.6,0.6,29.97,WSW,237,0.0,0.0,41,0.00,CLR,,0.00,WeatherDisplay:10.37,2013-01-21 06:50:00,
2013-01-21 01:55:00,20.5,0.5,29.97,WSW,237,0.0,0.0,41,0.00,CLR,,0.00,WeatherDisplay:10.37,2013-01-21 06:55:00,
2013-01-21 02:00:00,20.5,0.5,29.98,WSW,237,0.0,0.0,41,0.00,CLR,,0.00,WeatherDisplay:10.37,2013-01-21 07:00:00,
2013-01-21 02:05:00,20.1,-3.8,29.98,WSW,248,3.0,12.0,34,0.00,CLR,,0.00,WeatherDisplay:10.37,2013-01-21 07:05:00,
2013-01-21 02:10:00,19.9,-4.1,29.98,West,261,3.0,8.0,34,0.00,CLR,,0.00,WeatherDisplay:10.37,2013-01-21 07:10:00,
2013-01-21 02:15:00,19.3,-4.6,29.99,SW,216,0.0,14.0,34,0.00,CLR,,0.00,WeatherDisplay:10.37,2013-01-21 07:15:00,
2013-01-21 02:20:00,19.1,-4.8,29.99,SW,230,1.0,11.0,34,0.00,CLR,,0.00,WeatherDisplay:10.37,2013-01-21 07:20:00,
2013-01-21 02:25:00,18.8,-5.0,29.99,West,281,2.0,14.0,34,0.00,CLR,,0.00,WeatherDisplay:10.37,2013-01-21 07:25:00,
2013-01-21 02:30:00,18.8,-5.0,29.99,WNW,284,0.0,6.0,34,0.00,CLR,,0.00,WeatherDisplay:10.37,2013-01-21 07:30:00,
2013-01-21 02:35:00,19.0,-4.8,29.99,West,280,0.0,0.0,34,0.00,CLR,,0.00,WeatherDisplay:10.37,2013-01-21 07:35:00,
2013-01-21 02:40:00,18.5,-5.2,29.99,West,280,0.0,0.0,34,0.00,CLR,,0.00,WeatherDisplay:10.37,2013-01-21 07:40:00,
2013-01-21 02:45:00,19.0,-4.8,29.99,West,280,0.0,0.0,34,0.00,CLR,,0.00,WeatherDisplay:10.37,2013-01-21 07:45:00,
2013-01-21 02:55:00,19.4,-4.4,29.99,West,280,0.0,0.0,34,0.00,CLR,,0.00,WeatherDisplay:10.37,2013-01-21 07:55:00,
2013-01-21 03:00:00,18.8,-5.0,29.99,West,280,0.0,0.0,34,0.00,CLR,,0.00,WeatherDisplay:10.37,2013-01-21 08:00:00,
2013-01-21 03:05:00,18.7,-3.3,29.99,West,280,1.0,8.0,37,0.00,CLR,,0.00,WeatherDisplay:10.37,2013-01-21 08:05:00,
2013-01-21 03:10:00,18.4,-3.6,29.99,WNW,289,0.0,8.0,37,0.00,CLR,,0.00,WeatherDisplay:10.37,2013-01-21 08:10:00,
2013-01-21 03:15:00,18.4,-3.6,29.99,WNW,298,0.0,5.0,37,0.00,CLR,,0.00,WeatherDisplay:10.37,2013-01-21 08:15:00,
2013-01-21 03:20:00,18.1,-3.9,29.99,WNW,298,0.0,0.0,37,0.00,CLR,,0.00,WeatherDisplay:10.37,2013-01-21 08:20:00,
2013-01-21 03:25:00,17.8,-4.1,30.00,WNW,298,0.0,0.0,37,0.00,CLR,,0.00,WeatherDisplay:10.37,2013-01-21 08:25:00,
2013-01-21 03:30:00,16.9,-4.9,30.00,WNW,298,0.0,0.0,37,0.00,CLR,,0.00,WeatherDisplay:10.37,2013-01-21 08:30:00,
2013-01-21 03:35:00,18.1,-3.9,30.00,WNW,298,0.0,0.0,37,0.00,CLR,,0.00,WeatherDisplay:10.37,2013-01-21 08:35:00,
2013-01-21 03:40:00,18.4,-3.5,30.00,WNW,298,0.0,0.0,37,0.00,CLR,,0.00,WeatherDisplay:10.37,2013-01-21 08:40:00,
2013-01-21 03:50:00,18.1,-3.9,30.00,WNW,298,0.0,0.0,37,0.00,CLR,,0.00,WeatherDisplay:10.37,2013-01-21 08:50:00,
2013-01-21 03:55:00,17.1,-4.7,30.00,WNW,298,0.0,0.0,37,0.00,CLR,,0.00,WeatherDisplay:10.37,2013-01-21 08:55:00,
2013-01-21 04:00:00,17.3,-4.6,30.00,WNW,298,0.0,0.0,37,0.00,CLR,,0.00,WeatherDisplay:10.37,2013-01-21 09:00:00,
2013-01-21 04:05:00,18.5,-2.9,30.00,WNW,298,0.0,0.0,38,0.00,CLR,,0.00,WeatherDisplay:10.37,2013-01-21 09:05:00,
2013-01-21 04:10:00,18.7,-2.8,30.00,WNW,298,0.0,0.0,38,0.00,CLR,,0.00,WeatherDisplay:10.37,2013-01-21 09:10:00,
2013-01-21 04:15:00,18.6,-2.9,30.00,WNW,298,0.0,0.0,38,0.00,CLR,,0.00,WeatherDisplay:10.37,2013-01-21 09:15:00,
2013-01-21 04:20:00,16.6,-4.6,30.00,WNW,298,0.0,0.0,38,0.00,CLR,,0.00,WeatherDisplay:10.37,2013-01-21 09:20:00,
2013-01-21 04:25:00,17.2,-4.1,30.01,WNW,298,0.0,0.0,38,0.00,CLR,,0.00,WeatherDisplay:10.37,2013-01-21 09:25:00,
2013-01-21 04:30:00,16.5,-4.8,30.01,WNW,298,0.0,0.0,38,0.00,CLR,,0.00,WeatherDisplay:10.37,2013-01-21 09:30:00,
2013-01-21 04:35:00,16.9,-4.4,30.01,WNW,298,0.0,0.0,38,0.00,CLR,,0.00,WeatherDisplay:10.37,2013-01-21 09:35:00,
2013-01-21 04:40:00,17.3,-4.0,30.01,WNW,298,0.0,0.0,38,0.00,CLR,,0.00,WeatherDisplay:10.37,2013-01-21 09:40:00,
2013-01-21 04:45:00,17.6,-3.7,30.01,WNW,298,0.0,0.0,38,0.00,CLR,,0.00,WeatherDisplay:10.37,2013-01-21 09:45:00,
2013-01-21 04:50:00,16.8,-4.5,30.00,WNW,298,0.0,0.0,38,0.00,CLR,,0.00,WeatherDisplay:10.37,2013-01-21 09:50:00,
2013-01-21 04:55:00,17.3,-4.0,30.00,WNW,298,0.0,0.0,38,0.00,CLR,,0.00,WeatherDisplay:10.37,2013-01-21 09:55:00,
2013-01-21 05:00:00,17.0,-4.3,30.01,WNW,298,0.0,0.0,38,0.00,CLR,,0.00,WeatherDisplay:10.37,2013-01-21 10:00:00,
2013-01-21 05:05:00,17.5,-2.7,30.01,WNW,298,0.0,0.0,40,0.00,CLR,,0.00,WeatherDisplay:10.37,2013-01-21 10:05:00,
2013-01-21 05:10:00,16.9,-3.3,30.01,WNW,298,0.0,0.0,40,0.00,CLR,,0.00,WeatherDisplay:10.37,2013-01-21 10:10:00,
2013-01-21 05:15:00,15.8,-4.3,30.00,WNW,298,0.0,0.0,40,0.00,CLR,,0.00,WeatherDisplay:10.37,2013-01-21 10:15:00,
2013-01-21 05:20:00,16.6,-3.6,30.00,WNW,298,0.0,0.0,40,0.00,CLR,,0.00,WeatherDisplay:10.37,2013-01-21 10:20:00,
2013-01-21 05:25:00,15.7,-4.4,30.00,WNW,298,0.0,0.0,40,0.00,CLR,,0.00,WeatherDisplay:10.37,2013-01-21 10:25:00,
2013-01-21 05:30:00,16.1,-4.1,30.00,WNW,298,0.0,0.0,40,0.00,CLR,,0.00,WeatherDisplay:10.37,2013-01-21 10:30:00,
2013-01-21 05:35:00,15.9,-4.2,30.01,WNW,298,0.0,0.0,40,0.00,CLR,,0.00,WeatherDisplay:10.37,2013-01-21 10:35:00,
2013-01-21 05:40:00,16.6,-3.6,30.01,WNW,298,0.0,0.0,40,0.00,CLR,,0.00,WeatherDisplay:10.37,2013-01-21 10:40:00,
2013-01-21 05:45:00,16.8,-3.4,30.01,WNW,298,0.0,0.0,40,0.00,CLR,,0.00,WeatherDisplay:10.37,2013-01-21 10:45:00,
2013-01-21 05:50:00,16.9,-3.3,30.01,WNW,298,0.0,0.0,40,0.00,CLR,,0.00,WeatherDisplay:10.37,2013-01-21 10:50:00,
2013-01-21 05:55:00,16.6,-3.6,30.01,WNW,298,0.0,0.0,40,0.00,CLR,,0.00,WeatherDisplay:10.37,2013-01-21 10:55:00,
2013-01-21 06:00:00,15.1,-5.0,30.01,WNW,298,0.0,0.0,40,0.00,CLR,,0.00,WeatherDisplay:10.37,2013-01-21 11:00:00,
2013-01-21 06:05:00,15.6,-2.5,30.02,WNW,298,0.0,0.0,44,0.00,CLR,,0.00,WeatherDisplay:10.37,2013-01-21 11:05:00,
2013-01-21 06:10:00,17.0,-1.2,30.02,WNW,298,0.0,0.0,44,0.00,CLR,,0.00,WeatherDisplay:10.37,2013-01-21 11:10:00,
2013-01-21 06:15:00,17.2,-1.0,30.02,WNW,298,0.0,0.0,44,0.00,CLR,,0.00,WeatherDisplay:10.37,2013-01-21 11:15:00,
2013-01-21 06:20:00,16.8,-1.4,30.02,WNW,298,0.0,0.0,44,0.00,CLR,,0.00,WeatherDisplay:10.37,2013-01-21 11:20:00,
2013-01-21 06:25:00,16.1,-2.0,30.02,WNW,298,0.0,0.0,44,0.00,CLR,,0.00,WeatherDisplay:10.37,2013-01-21 11:25:00,
2013-01-21 06:30:00,16.4,-1.7,30.02,WNW,298,0.0,0.0,44,0.00,CLR,,0.00,WeatherDisplay:10.37,2013-01-21 11:30:00,
2013-01-21 06:35:00,16.6,-1.6,30.03,WNW,298,0.0,0.0,44,0.00,CLR,,0.00,WeatherDisplay:10.37,2013-01-21 11:35:00,
2013-01-21 06:40:00,17.2,-1.1,30.02,WNW,298,0.0,0.0,44,0.00,CLR,,0.00,WeatherDisplay:10.37,2013-01-21 11:40:00,
2013-01-21 06:45:00,17.2,-1.0,30.03,WNW,298,0.0,0.0,44,0.00,CLR,,0.00,WeatherDisplay:10.37,2013-01-21 11:45:00,
2013-01-21 06:50:00,17.1,-1.1,30.03,WNW,298,0.0,0.0,44,0.00,CLR,,0.00,WeatherDisplay:10.37,2013-01-21 11:50:00,
2013-01-21 06:55:00,16.4,-1.8,30.03,WNW,298,0.0,0.0,44,0.00,CLR,,0.00,WeatherDisplay:10.37,2013-01-21 11:55:00,
2013-01-21 07:00:00,14.7,-3.3,30.03,WNW,298,0.0,0.0,44,0.00,CLR,,0.00,WeatherDisplay:10.37,2013-01-21 12:00:00,
2013-01-21 07:05:00,15.9,-1.7,30.03,WNW,298,0.0,0.0,45,0.00,CLR,,0.00,WeatherDisplay:10.37,2013-01-21 12:05:00,
2013-01-21 07:10:00,15.9,-1.7,30.03,WNW,298,0.0,0.0,45,0.00,CLR,,0.00,WeatherDisplay:10.37,2013-01-21 12:10:00,
2013-01-21 07:15:00,16.6,-1.1,30.03,WNW,298,0.0,0.0,45,0.00,CLR,,0.00,WeatherDisplay:10.37,2013-01-21 12:15:00,
2013-01-21 07:20:00,16.3,-1.3,30.03,WNW,298,0.0,0.0,45,0.00,CLR,,0.00,WeatherDisplay:10.37,2013-01-21 12:20:00,
2013-01-21 07:25:00,15.7,-1.9,30.03,WNW,298,0.0,0.0,45,0.00,CLR,,0.00,WeatherDisplay:10.37,2013-01-21 12:25:00,
2013-01-21 07:30:00,16.0,-1.6,30.04,WNW,298,0.0,0.0,45,0.00,CLR,,0.00,WeatherDisplay:10.37,2013-01-21 12:30:00,
2013-01-21 07:35:00,16.6,-1.1,30.04,WNW,298,0.0,0.0,45,0.00,CLR,,0.00,WeatherDisplay:10.37,2013-01-21 12:35:00,
2013-01-21 07:40:00,16.9,-0.9,30.03,WNW,298,0.0,0.0,45,0.00,CLR,,0.00,WeatherDisplay:10.37,2013-01-21 12:40:00,
2013-01-21 07:45:00,16.1,-1.6,30.03,WNW,298,0.0,0.0,45,0.00,CLR,,0.00,WeatherDisplay:10.37,2013-01-21 12:45:00,
2013-01-21 07:50:00,15.9,-1.7,30.04,WNW,298,0.0,0.0,45,0.00,CLR,,0.00,WeatherDisplay:10.37,2013-01-21 12:50:00,
2013-01-21 07:55:00,16.1,-1.5,30.04,WNW,298,0.0,0.0,45,0.00,CLR,,0.00,WeatherDisplay:10.37,2013-01-21 12:55:00,
2013-01-21 08:05:00,16.8,-0.4,30.04,WNW,298,0.0,0.0,46,0.00,CLR,,0.00,WeatherDisplay:10.37,2013-01-21 13:05:00,
2013-01-21 08:10:00,16.2,-1.0,30.04,WNW,298,0.0,0.0,46,0.00,CLR,,0.00,WeatherDisplay:10.37,2013-01-21 13:10:00,
2013-01-21 08:15:00,17.0,-0.2,30.04,WNW,298,0.0,0.0,46,0.00,CLR,,0.00,WeatherDisplay:10.37,2013-01-21 13:15:00,
2013-01-21 08:20:00,17.9,0.6,30.04,WNW,298,0.0,0.0,46,0.00,CLR,,0.00,WeatherDisplay:10.37,2013-01-21 13:20:00,
2013-01-21 08:25:00,17.5,0.2,30.04,WNW,298,0.0,0.0,46,0.00,CLR,,0.00,WeatherDisplay:10.37,2013-01-21 13:25:00,
2013-01-21 08:30:00,17.8,0.5,30.04,WNW,298,0.0,0.0,46,0.00,CLR,,0.00,WeatherDisplay:10.37,2013-01-21 13:30:00,
2013-01-21 08:35:00,17.8,0.5,30.04,WNW,298,0.0,0.0,46,0.00,CLR,,0.00,WeatherDisplay:10.37,2013-01-21 13:35:00,
2013-01-21 08:40:00,17.8,0.5,30.04,WNW,292,0.0,5.0,46,0.00,CLR,,0.00,WeatherDisplay:10.37,2013-01-21 13:40:00,
2013-01-21 08:45:00,17.8,0.5,30.04,WNW,284,0.0,0.0,46,0.00,CLR,,0.00,WeatherDisplay:10.37,2013-01-21 13:45:00,
2013-01-21 08:50:00,18.4,1.0,30.04,WNW,282,0.0,0.0,46,0.00,CLR,,0.00,WeatherDisplay:10.37,2013-01-21 13:50:00,
2013-01-21 08:55:00,18.4,1.1,30.04,WNW,283,3.0,8.0,46,0.00,CLR,,0.00,WeatherDisplay:10.37,2013-01-21 13:55:00,
2013-01-21 09:00:00,19.1,1.7,30.04,WNW,282,0.0,0.0,46,0.00,CLR,,0.00,WeatherDisplay:10.37,2013-01-21 14:00:00,
2013-01-21 09:10:00,19.0,-1.9,30.05,WNW,299,0.0,0.0,39,0.00,CLR,,0.00,WeatherDisplay:10.37,2013-01-21 14:10:00,
2013-01-21 09:15:00,19.3,-1.7,30.05,WNW,298,1.0,7.0,39,0.00,CLR,,0.00,WeatherDisplay:10.37,2013-01-21 14:15:00,
2013-01-21 09:20:00,19.5,-1.5,30.05,West,281,0.0,0.0,39,0.00,CLR,,0.00,WeatherDisplay:10.37,2013-01-21 14:20:00,
2013-01-21 09:25:00,19.4,-1.6,30.05,West,274,0.0,3.0,39,0.00,CLR,,0.00,WeatherDisplay:10.37,2013-01-21 14:25:00,
2013-01-21 09:30:00,19.5,-1.5,30.05,West,280,0.0,6.0,39,0.00,CLR,,0.00,WeatherDisplay:10.37,2013-01-21 14:30:00,
2013-01-21 09:35:00,20.2,-0.8,30.05,WNW,282,0.0,0.0,39,0.00,CLR,,0.00,WeatherDisplay:10.37,2013-01-21 14:35:00,
2013-01-21 09:40:00,20.7,-0.4,30.05,WNW,287,0.0,6.0,39,0.00,CLR,,0.00,WeatherDisplay:10.37,2013-01-21 14:40:00,
2013-01-21 09:45:00,20.3,-0.8,30.05,WNW,286,0.0,3.0,39,0.00,CLR,,0.00,WeatherDisplay:10.37,2013-01-21 14:45:00,
2013-01-21 09:50:00,20.2,-0.8,30.05,WNW,282,0.0,0.0,39,0.00,CLR,,0.00,WeatherDisplay:10.37,2013-01-21 14:50:00,
2013-01-21 09:55:00,19.5,-1.5,30.06,WNW,285,0.0,5.0,39,0.00,CLR,,0.00,WeatherDisplay:10.37,2013-01-21 14:55:00,
2013-01-21 10:00:00,20.7,-0.4,30.05,WNW,288,0.0,0.0,39,0.00,CLR,,0.00,WeatherDisplay:10.37,2013-01-21 15:00:00,
2013-01-21 10:05:00,20.1,-2.7,30.04,WNW,288,0.0,0.0,36,0.00,CLR,,0.00,WeatherDisplay:10.37,2013-01-21 15:05:00,
2013-01-21 10:10:00,21.2,-1.7,30.04,WNW,288,0.0,0.0,36,0.00,CLR,,0.00,WeatherDisplay:10.37,2013-01-21 15:10:00,
2013-01-21 10:15:00,20.9,-1.9,30.04,WNW,293,0.0,3.0,36,0.00,CLR,,0.00,WeatherDisplay:10.37,2013-01-21 15:15:00,
2013-01-21 10:20:00,21.5,-1.4,30.04,WNW,298,0.0,0.0,36,0.00,CLR,,0.00,WeatherDisplay:10.37,2013-01-21 15:20:00,
2013-01-21 10:25:00,22.2,-0.7,30.03,WNW,299,0.0,0.0,36,0.00,CLR,,0.00,WeatherDisplay:10.37,2013-01-21 15:25:00,
2013-01-21 10:30:00,22.7,-0.3,30.04,WNW,291,1.0,7.0,36,0.00,CLR,,0.00,WeatherDisplay:10.37,2013-01-21 15:30:00,
2013-01-21 10:35:00,23.3,0.3,30.04,WNW,282,0.0,2.0,36,0.00,CLR,,0.00,WeatherDisplay:10.37,2013-01-21 15:35:00,
2013-01-21 10:40:00,22.5,-0.5,30.03,WNW,286,0.0,6.0,36,0.00,CLR,,0.00,WeatherDisplay:10.37,2013-01-21 15:40:00,
2013-01-21 10:45:00,22.3,-0.7,30.03,WNW,293,0.0,8.0,36,0.00,CLR,,0.00,WeatherDisplay:10.37,2013-01-21 15:45:00,
2013-01-21 10:50:00,23.4,0.3,30.03,WNW,289,0.0,10.0,36,0.00,CLR,,0.00,WeatherDisplay:10.37,2013-01-21 15:50:00,
2013-01-21 10:55:00,23.5,0.5,30.02,SW,225,0.0,7.0,36,0.00,CLR,,0.00,WeatherDisplay:10.37,2013-01-21 15:55:00,
2013-01-21 11:00:00,23.9,0.8,30.02,WSW,238,0.0,3.0,36,0.00,CLR,,0.00,WeatherDisplay:10.37,2013-01-21 16:00:00,
2013-01-21 11:05:00,23.5,-0.8,30.02,WNW,301,0.0,0.0,34,0.00,CLR,,0.00,WeatherDisplay:10.37,2013-01-21 16:05:00,
2013-01-21 11:10:00,23.7,-0.6,30.02,NW,304,0.0,0.0,34,0.00,CLR,,0.00,WeatherDisplay:10.37,2013-01-21 16:10:00,
2013-01-21 11:15:00,24.1,-0.3,30.01,NW,304,0.0,0.0,34,0.00,CLR,,0.00,WeatherDisplay:10.37,2013-01-21 16:15:00,
2013-01-21 11:20:00,24.0,-0.4,30.01,NW,304,0.0,0.0,34,0.00,CLR,,0.00,WeatherDisplay:10.37,2013-01-21 16:20:00,
2013-01-21 11:25:00,23.9,-0.4,30.00,NW,304,0.0,0.0,34,0.00,CLR,,0.00,WeatherDisplay:10.37,2013-01-21 16:25:00,
2013-01-21 11:30:00,23.9,-0.4,30.00,NW,304,0.0,6.0,34,0.00,CLR,,0.00,WeatherDisplay:10.37,2013-01-21 16:30:00,
2013-01-21 11:35:00,24.1,-0.3,29.99,WNW,286,0.0,6.0,34,0.00,CLR,,0.00,WeatherDisplay:10.37,2013-01-21 16:35:00,
2013-01-21 11:40:00,23.8,-0.6,29.99,West,280,0.0,6.0,34,0.00,CLR,,0.00,WeatherDisplay:10.37,2013-01-21 16:40:00,
2013-01-21 11:45:00,23.3,-1.0,29.99,WNW,290,0.0,0.0,34,0.00,CLR,,0.00,WeatherDisplay:10.37,2013-01-21 16:45:00,
2013-01-21 11:50:00,25.2,0.7,29.98,WNW,294,0.0,0.0,34,0.00,CLR,,0.00,WeatherDisplay:10.37,2013-01-21 16:50:00,
2013-01-21 11:55:00,23.8,-0.6,29.98,WNW,294,0.0,0.0,34,0.00,CLR,,0.00,WeatherDisplay:10.37,2013-01-21 16:55:00,
2013-01-21 12:00:00,25.3,0.8,29.98,WNW,294,0.0,0.0,34,0.00,CLR,,0.00,WeatherDisplay:10.37,2013-01-21 17:00:00,
2013-01-21 12:05:00,23.9,0.8,29.98,WNW,284,1.0,8.0,36,0.00,BKN,,0.00,WeatherDisplay:10.37,2013-01-21 17:05:00,
2013-01-21 12:10:00,23.9,0.8,29.98,SW,233,0.0,0.0,36,0.00,BKN,,0.00,WeatherDisplay:10.37,2013-01-21 17:10:00,
2013-01-21 12:15:00,25.1,1.8,29.97,SW,223,3.0,8.0,36,0.00,BKN,,0.00,WeatherDisplay:10.37,2013-01-21 17:15:00,
2013-01-21 12:20:00,24.9,1.7,29.97,WSW,244,0.0,6.0,36,0.00,BKN,,0.00,WeatherDisplay:10.37,2013-01-21 17:20:00,
2013-01-21 12:25:00,24.7,1.5,29.97,SW,226,0.0,9.0,36,0.00,BKN,,0.00,WeatherDisplay:10.37,2013-01-21 17:25:00,
2013-01-21 12:30:00,25.2,1.9,29.97,WSW,246,0.0,5.0,36,0.00,BKN,,0.00,WeatherDisplay:10.37,2013-01-21 17:30:00,
2013-01-21 12:35:00,24.6,1.4,29.96,West,280,0.0,0.0,36,0.00,BKN,,0.00,WeatherDisplay:10.37,2013-01-21 17:35:00,
2013-01-21 12:40:00,24.5,1.3,29.96,West,280,0.0,0.0,36,0.00,BKN,,0.00,WeatherDisplay:10.37,2013-01-21 17:40:00,
2013-01-21 12:45:00,23.8,0.7,29.96,West,281,0.0,3.0,36,0.00,BKN,,0.00,WeatherDisplay:10.37,2013-01-21 17:45:00,
2013-01-21 12:50:00,24.5,1.3,29.95,WNW,282,0.0,0.0,36,0.00,BKN,,0.00,WeatherDisplay:10.37,2013-01-21 17:50:00,
2013-01-21 12:55:00,24.5,1.3,29.95,WNW,282,0.0,0.0,36,0.00,BKN,,0.00,WeatherDisplay:10.37,2013-01-21 17:55:00,
2013-01-21 13:00:00,24.6,1.4,29.95,WSW,254,0.0,11.0,36,0.00,BKN,,0.00,WeatherDisplay:10.37,2013-01-21 18:00:00,
2013-01-21 13:05:00,24.6,1.4,29.95,WSW,241,2.0,9.0,36,0.00,OVC,,0.00,WeatherDisplay:10.37,2013-01-21 18:05:00,
2013-01-21 13:10:00,25.2,1.9,29.95,SW,232,5.0,11.0,36,0.00,OVC,,0.00,WeatherDisplay:10.37,2013-01-21 18:10:00,
2013-01-21 13:14:00,25.3,2.0,29.94,SSW,194,0.0,0.0,36,0.00,OVC,,0.00,WeatherDisplay:10.37,2013-01-21 18:14:00,
2013-01-21 13:25:00,25.3,2.1,29.94,NW,304,0.0,3.0,36,0.00,OVC,,0.00,WeatherDisplay:10.37,2013-01-21 18:25:00,
2013-01-21 13:30:00,25.1,1.8,29.94,NW,309,0.0,5.0,36,0.00,OVC,,0.00,WeatherDisplay:10.37,2013-01-21 18:30:00,
2013-01-21 13:35:00,26.5,3.1,29.94,NW,315,0.0,0.0,36,0.00,OVC,,0.00,WeatherDisplay:10.37,2013-01-21 18:35:00,
2013-01-21 13:40:00,25.7,2.4,29.94,NW,314,0.0,6.0,36,0.00,OVC,,0.00,WeatherDisplay:10.37,2013-01-21 18:40:00,
2013-01-21 13:45:00,25.3,2.0,29.94,WSW,241,5.0,9.0,36,0.00,OVC,,0.00,WeatherDisplay:10.37,2013-01-21 18:45:00,
2013-01-21 13:50:00,25.9,2.5,29.94,SW,220,2.0,7.0,36,0.00,OVC,,0.00,WeatherDisplay:10.37,2013-01-21 18:50:00,
2013-01-21 13:55:00,25.5,2.2,29.94,West,259,2.0,7.0,36,0.00,OVC,,0.00,WeatherDisplay:10.37,2013-01-21 18:55:00,
2013-01-21 14:00:00,25.3,2.0,29.94,NW,306,0.0,0.0,36,0.00,OVC,,0.00,WeatherDisplay:10.37,2013-01-21 19:00:00,
2013-01-21 14:05:00,25.9,3.7,29.94,NW,320,0.0,3.0,38,0.00,OVC,,0.00,WeatherDisplay:10.37,2013-01-21 19:05:00,
2013-01-21 14:10:00,26.3,4.1,29.94,NW,321,0.0,0.0,38,0.00,OVC,,0.00,WeatherDisplay:10.37,2013-01-21 19:10:00,
2013-01-21 14:15:00,25.4,3.3,29.94,WNW,296,0.0,7.0,38,0.00,OVC,,0.00,WeatherDisplay:10.37,2013-01-21 19:15:00,
2013-01-21 14:20:00,25.0,2.9,29.94,WNW,292,1.0,12.0,38,0.00,OVC,,0.00,WeatherDisplay:10.37,2013-01-21 19:20:00,
2013-01-21 14:25:00,25.3,3.2,29.93,WNW,300,2.0,8.0,38,0.00,OVC,,0.00,WeatherDisplay:10.37,2013-01-21 19:25:00,
2013-01-21 14:30:00,25.2,3.1,29.93,NW,305,0.0,8.0,38,0.00,OVC,,0.00,WeatherDisplay:10.37,2013-01-21 19:30:00,
2013-01-21 14:34:00,26.0,3.8,29.93,NW,305,0.0,5.0,38,0.00,OVC,,0.00,WeatherDisplay:10.37,2013-01-21 19:34:00,
2013-01-21 14:40:00,25.7,3.5,29.93,WNW,300,3.0,8.0,38,0.00,OVC,,0.00,WeatherDisplay:10.37,2013-01-21 19:40:00,
2013-01-21 14:45:00,25.5,3.4,29.93,WNW,298,0.0,0.0,38,0.00,OVC,,0.00,WeatherDisplay:10.37,2013-01-21 19:45:00,
2013-01-21 14:50:00,25.2,3.1,29.93,WNW,298,0.0,0.0,38,0.00,OVC,,0.00,WeatherDisplay:10.37,2013-01-21 19:50:00,
2013-01-21 14:55:00,25.6,3.4,29.93,WNW,298,0.0,0.0,38,0.00,OVC,,0.00,WeatherDisplay:10.37,2013-01-21 19:55:00,
2013-01-21 15:00:00,25.5,3.3,29.93,WNW,298,0.0,0.0,38,0.00,OVC,,0.00,WeatherDisplay:10.37,2013-01-21 20:00:00,
2013-01-21 15:05:00,25.2,3.6,29.93,WNW,298,0.0,0.0,39,0.00,OVC,,0.00,WeatherDisplay:10.37,2013-01-21 20:05:00,
2013-01-21 15:10:00,25.6,4.0,29.93,WNW,298,0.0,0.0,39,0.00,OVC,,0.00,WeatherDisplay:10.37,2013-01-21 20:10:00,
2013-01-21 15:15:00,25.0,3.5,29.92,WNW,298,0.0,0.0,39,0.00,OVC,,0.00,WeatherDisplay:10.37,2013-01-21 20:15:00,
2013-01-21 15:20:00,24.8,3.3,29.93,WNW,298,0.0,0.0,39,0.00,OVC,,0.00,WeatherDisplay:10.37,2013-01-21 20:20:00,
2013-01-21 15:25:00,24.3,2.8,29.92,WNW,298,0.0,0.0,39,0.00,OVC,,0.00,WeatherDisplay:10.37,2013-01-21 20:25:00,
2013-01-21 15:30:00,24.3,2.9,29.92,WNW,298,0.0,0.0,39,0.00,OVC,,0.00,WeatherDisplay:10.37,2013-01-21 20:30:00,
2013-01-21 15:35:00,24.9,3.4,29.93,WNW,298,0.0,0.0,39,0.00,OVC,,0.00,WeatherDisplay:10.37,2013-01-21 20:35:00,
2013-01-21 15:40:00,24.4,2.9,29.93,WNW,301,2.0,9.0,39,0.00,OVC,,0.00,WeatherDisplay:10.37,2013-01-21 20:40:00,
2013-01-21 15:45:00,23.8,2.4,29.92,NW,308,0.0,5.0,39,0.00,OVC,,0.00,WeatherDisplay:10.37,2013-01-21 20:45:00,
2013-01-21 15:50:00,24.0,2.5,29.91,NW,311,0.0,0.0,39,0.00,OVC,,0.00,WeatherDisplay:10.37,2013-01-21 20:50:00,
2013-01-21 15:54:00,23.6,2.3,29.92,NW,311,0.0,0.0,39,0.00,OVC,,0.00,WeatherDisplay:10.37,2013-01-21 20:54:00,
2013-01-21 16:00:00,24.1,2.6,29.92,NW,311,0.0,0.0,39,0.00,OVC,,0.00,WeatherDisplay:10.37,2013-01-21 21:00:00,
2013-01-21 16:05:00,23.5,4.3,29.91,NW,310,1.0,6.0,43,0.00,OVC,,0.00,WeatherDisplay:10.37,2013-01-21 21:05:00,
2013-01-21 16:10:00,22.9,3.7,29.91,WNW,302,0.0,5.0,43,0.00,OVC,,0.00,WeatherDisplay:10.37,2013-01-21 21:10:00,
2013-01-21 16:15:00,23.2,4.0,29.91,WNW,296,0.0,6.0,43,0.00,OVC,,0.00,WeatherDisplay:10.37,2013-01-21 21:15:00,
2013-01-21 16:20:00,23.3,4.1,29.92,WNW,298,2.0,7.0,43,0.00,OVC,,0.00,WeatherDisplay:10.37,2013-01-21 21:20:00,
2013-01-21 16:25:00,22.9,3.7,29.91,NW,316,0.0,0.0,43,0.00,OVC,,0.00,WeatherDisplay:10.37,2013-01-21 21:25:00,
2013-01-21 16:30:00,23.1,3.9,29.92,North,355,0.0,0.0,43,0.00,OVC,,0.00,WeatherDisplay:10.37,2013-01-21 21:30:00,
2013-01-21 16:35:00,22.7,3.5,29.92,North,7,0.0,0.0,43,0.00,OVC,,0.00,WeatherDisplay:10.37,2013-01-21 21:35:00,
2013-01-21 16:40:00,22.8,3.6,29.92,North,7,0.0,0.0,43,0.00,OVC,,0.00,WeatherDisplay:10.37,2013-01-21 21:40:00,
2013-01-21 16:45:00,23.1,3.9,29.92,NNW,348,0.0,3.0,43,0.00,OVC,,0.00,WeatherDisplay:10.37,2013-01-21 21:45:00,
2013-01-21 16:50:00,23.0,3.7,29.92,NW,313,0.0,0.0,43,0.00,OVC,,0.00,WeatherDisplay:10.37,2013-01-21 21:50:00,
2013-01-21 16:55:00,22.7,3.6,29.92,WNW,301,0.0,3.0,43,0.00,OVC,,0.00,WeatherDisplay:10.37,2013-01-21 21:55:00,
2013-01-21 17:00:00,22.9,3.7,29.92,WNW,300,0.0,5.0,43,0.00,OVC,,0.00,WeatherDisplay:10.37,2013-01-21 22:00:00,
2013-01-21 17:05:00,22.9,7.9,29.91,WNW,299,0.0,0.0,52,0.00,OVC,,0.00,WeatherDisplay:10.37,2013-01-21 22:05:00,
2013-01-21 17:10:00,22.8,7.8,29.92,WNW,299,0.0,0.0,52,0.00,OVC,,0.00,WeatherDisplay:10.37,2013-01-21 22:10:00,
2013-01-21 17:15:00,22.6,7.6,29.92,WNW,299,0.0,0.0,52,0.00,OVC,,0.00,WeatherDisplay:10.37,2013-01-21 22:15:00,
2013-01-21 17:20:00,22.1,7.1,29.91,WNW,299,0.0,0.0,52,0.00,OVC,,0.00,WeatherDisplay:10.37,2013-01-21 22:20:00,
2013-01-21 17:25:00,22.5,7.5,29.91,WNW,299,0.0,0.0,52,0.00,OVC,,0.00,WeatherDisplay:10.37,2013-01-21 22:25:00,
2013-01-21 17:30:00,22.5,7.5,29.91,WNW,299,0.0,0.0,52,0.00,OVC,,0.00,WeatherDisplay:10.37,2013-01-21 22:30:00,
2013-01-21 17:34:00,23.2,8.2,29.91,WNW,299,0.0,0.0,52,0.00,OVC,,0.00,WeatherDisplay:10.37,2013-01-21 22:34:00,
2013-01-21 17:40:00,22.7,7.7,29.91,WNW,299,0.0,0.0,52,0.00,OVC,,0.00,WeatherDisplay:10.37,2013-01-21 22:40:00,
2013-01-21 17:45:00,22.5,7.5,29.91,WNW,299,0.0,0.0,52,0.00,OVC,,0.00,WeatherDisplay:10.37,2013-01-21 22:45:00,
2013-01-21 17:50:00,22.8,7.8,29.91,WNW,299,0.0,0.0,52,0.00,OVC,,0.00,WeatherDisplay:10.37,2013-01-21 22:50:00,
2013-01-21 17:55:00,22.1,7.1,29.91,WNW,299,0.0,0.0,52,0.00,OVC,,0.00,WeatherDisplay:10.37,2013-01-21 22:55:00,
2013-01-21 18:00:00,22.8,7.8,29.92,WNW,299,0.0,0.0,52,0.00,OVC,,0.00,WeatherDisplay:10.37,2013-01-21 23:00:00,
2013-01-21 18:05:00,21.6,10.6,29.91,WNW,299,0.0,0.0,62,0.00,OVC,,0.00,WeatherDisplay:10.37,2013-01-21 23:05:00,
2013-01-21 18:10:00,22.4,11.3,29.92,WNW,299,0.0,0.0,62,0.00,OVC,,0.00,WeatherDisplay:10.37,2013-01-21 23:10:00,
2013-01-21 18:15:00,23.6,12.5,29.92,WNW,299,0.0,0.0,62,0.00,OVC,,0.00,WeatherDisplay:10.37,2013-01-21 23:15:00,
2013-01-21 18:20:00,23.9,12.8,29.92,WNW,299,0.0,0.0,62,0.00,OVC,,0.00,WeatherDisplay:10.37,2013-01-21 23:20:00,
2013-01-21 18:25:00,23.1,12.0,29.92,WNW,299,0.0,0.0,62,0.00,OVC,,0.00,WeatherDisplay:10.37,2013-01-21 23:25:00,
2013-01-21 18:30:00,22.9,11.8,29.92,WNW,299,0.0,0.0,62,0.00,OVC,,0.00,WeatherDisplay:10.37,2013-01-21 23:30:00,
2013-01-21 18:35:00,22.0,11.0,29.92,WNW,299,0.0,0.0,62,0.00,OVC,,0.00,WeatherDisplay:10.37,2013-01-21 23:35:00,
2013-01-21 18:40:00,23.8,12.7,29.92,WNW,299,0.0,0.0,62,0.00,OVC,,0.00,WeatherDisplay:10.37,2013-01-21 23:40:00,
2013-01-21 18:45:00,23.9,12.8,29.92,WNW,299,0.0,0.0,62,0.00,OVC,,0.00,WeatherDisplay:10.37,2013-01-21 23:45:00,
2013-01-21 18:50:00,22.9,11.8,29.92,WNW,299,0.0,0.0,62,0.00,OVC,,0.00,WeatherDisplay:10.37,2013-01-21 23:50:00,
2013-01-21 18:54:00,23.4,12.3,29.92,WNW,299,0.0,0.0,62,0.00,OVC,,0.00,WeatherDisplay:10.37,2013-01-21 23:54:00,
2013-01-21 19:00:00,22.1,11.0,29.92,WNW,299,0.0,0.0,62,0.00,OVC,,0.00,WeatherDisplay:10.37,2013-01-22 00:00:00,
2013-01-21 19:04:00,22.6,16.5,29.91,WNW,299,0.0,0.0,77,0.00,-SN,,0.00,WeatherDisplay:10.37,2013-01-22 00:04:00,
2013-01-21 19:10:00,23.1,16.9,29.91,WNW,299,0.0,0.0,77,0.00,-SN,,0.00,WeatherDisplay:10.37,2013-01-22 00:10:00,
2013-01-21 19:15:00,22.7,16.5,29.91,WNW,299,0.0,0.0,77,0.00,-SN,,0.00,WeatherDisplay:10.37,2013-01-22 00:15:00,
2013-01-21 19:20:00,22.7,16.6,29.92,WNW,299,0.0,0.0,77,0.00,-SN,,0.00,WeatherDisplay:10.37,2013-01-22 00:20:00,
2013-01-21 19:25:00,23.1,16.9,29.91,WNW,299,0.0,0.0,77,0.00,-SN,,0.00,WeatherDisplay:10.37,2013-01-22 00:25:00,
2013-01-21 19:30:00,23.3,17.2,29.91,WNW,299,0.0,0.0,77,0.00,-SN,,0.00,WeatherDisplay:10.37,2013-01-22 00:30:00,
2013-01-21 19:35:00,23.7,18.1,29.91,WNW,299,0.0,0.0,79,0.00,-SN,,0.00,WeatherDisplay:10.37,2013-01-22 00:35:00,
2013-01-21 19:40:00,22.1,16.6,29.91,WNW,299,0.0,0.0,79,0.00,-SN,,0.00,WeatherDisplay:10.37,2013-01-22 00:40:00,
2013-01-21 19:45:00,21.4,19.4,29.91,WNW,299,0.0,0.0,92,0.00,-SN,,0.00,WeatherDisplay:10.37,2013-01-22 00:45:00,
2013-01-21 19:50:00,22.2,20.2,29.91,WNW,299,0.0,0.0,92,0.00,-SN,,0.00,WeatherDisplay:10.37,2013-01-22 00:50:00,
2013-01-21 19:55:00,22.6,20.6,29.91,WNW,299,0.0,0.0,92,0.00,-SN,,0.00,WeatherDisplay:10.37,2013-01-22 00:55:00,
2013-01-21 20:00:00,21.2,19.2,29.91,WNW,299,0.0,0.0,92,0.00,-SN,,0.00,WeatherDisplay:10.37,2013-01-22 01:00:00,
2013-01-21 20:05:00,21.6,18.6,29.90,WNW,299,0.0,0.0,88,0.00,-SN,,0.00,WeatherDisplay:10.37,2013-01-22 01:05:00,
2013-01-21 20:10:00,20.8,17.8,29.90,WNW,299,0.0,0.0,88,0.00,-SN,,0.00,WeatherDisplay:10.37,2013-01-22 01:10:00,
2013-01-21 20:15:00,21.9,18.9,29.90,WNW,299,0.0,0.0,88,0.00,-SN,,0.00,WeatherDisplay:10.37,2013-01-22 01:15:00,
2013-01-21 20:20:00,22.9,19.9,29.90,WNW,299,0.0,0.0,88,0.00,-SN,,0.00,WeatherDisplay:10.37,2013-01-22 01:20:00,
2013-01-21 20:25:00,21.9,18.9,29.90,WNW,299,0.0,0.0,88,0.00,-SN,,0.00,WeatherDisplay:10.37,2013-01-22 01:25:00,
2013-01-21 20:30:00,20.6,17.6,29.89,WNW,299,0.0,0.0,88,0.00,-SN,,0.00,WeatherDisplay:10.37,2013-01-22 01:30:00,
2013-01-21 20:35:00,21.0,18.0,29.89,WNW,299,0.0,0.0,88,0.00,-SN,,0.00,WeatherDisplay:10.37,2013-01-22 01:35:00,
2013-01-21 20:40:00,21.8,18.8,29.89,WNW,299,0.0,0.0,88,0.00,-SN,,0.00,WeatherDisplay:10.37,2013-01-22 01:40:00,
2013-01-21 20:45:00,21.1,18.1,29.89,WNW,299,0.0,0.0,88,0.00,-SN,,0.00,WeatherDisplay:10.37,2013-01-22 01:45:00,
2013-01-21 20:50:00,19.8,16.8,29.88,WNW,299,0.0,0.0,88,0.00,-SN,,0.00,WeatherDisplay:10.37,2013-01-22 01:50:00,
2013-01-21 20:55:00,21.3,18.3,29.88,WNW,299,0.0,0.0,88,0.00,-SN,,0.00,WeatherDisplay:10.37,2013-01-22 01:55:00,
2013-01-21 21:00:00,21.9,18.9,29.88,WNW,299,0.0,0.0,88,0.00,-SN,,0.00,WeatherDisplay:10.37,2013-01-22 02:00:00,
2013-01-21 21:04:00,20.9,17.9,29.88,WNW,299,0.0,0.0,88,0.00,OVC,,0.00,WeatherDisplay:10.37,2013-01-22 02:04:00,
2013-01-21 21:10:00,18.7,15.7,29.87,WNW,299,0.0,0.0,88,0.00,OVC,,0.00,WeatherDisplay:10.37,2013-01-22 02:10:00,
2013-01-21 21:15:00,19.9,16.9,29.88,WNW,299,0.0,0.0,88,0.00,OVC,,0.00,WeatherDisplay:10.37,2013-01-22 02:15:00,
2013-01-21 21:20:00,20.8,17.8,29.87,WNW,299,0.0,0.0,88,0.00,OVC,,0.00,WeatherDisplay:10.37,2013-01-22 02:20:00,
2013-01-21 21:24:00,21.3,18.3,29.87,WNW,299,0.0,0.0,88,0.00,OVC,,0.00,WeatherDisplay:10.37,2013-01-22 02:24:00,
2013-01-21 21:30:00,20.8,17.8,29.87,WNW,299,0.0,0.0,88,0.00,OVC,,0.00,WeatherDisplay:10.37,2013-01-22 02:30:00,
2013-01-21 21:35:00,17.9,14.9,29.86,WNW,299,0.0,0.0,88,0.00,OVC,,0.00,WeatherDisplay:10.37,2013-01-22 02:35:00,
2013-01-21 21:40:00,17.9,15.0,29.86,WNW,299,0.0,0.0,88,0.00,OVC,,0.00,WeatherDisplay:10.37,2013-01-22 02:40:00,
2013-01-21 21:45:00,18.0,15.1,29.86,WNW,299,0.0,0.0,88,0.00,OVC,,0.00,WeatherDisplay:10.37,2013-01-22 02:45:00,
2013-01-21 21:50:00,17.8,14.9,29.86,WNW,299,0.0,0.0,88,0.00,OVC,,0.00,WeatherDisplay:10.37,2013-01-22 02:50:00,
2013-01-21 21:54:00,17.6,14.6,29.86,WNW,299,0.0,0.0,88,0.00,OVC,,0.00,WeatherDisplay:10.37,2013-01-22 02:54:00,
2013-01-21 21:59:00,17.5,14.5,29.85,WNW,299,0.0,0.0,88,0.00,OVC,,0.00,WeatherDisplay:10.37,2013-01-22 02:59:00,
2013-01-21 22:04:00,17.2,14.0,29.85,WNW,299,0.0,0.0,87,0.00,OVC,,0.00,WeatherDisplay:10.37,2013-01-22 03:04:00,
2013-01-21 22:10:00,17.3,14.1,29.85,WNW,299,0.0,0.0,87,0.00,OVC,,0.00,WeatherDisplay:10.37,2013-01-22 03:10:00,
2013-01-21 22:15:00,17.9,14.7,29.84,WNW,299,0.0,0.0,87,0.00,OVC,,0.00,WeatherDisplay:10.37,2013-01-22 03:15:00,
2013-01-21 22:20:00,17.5,14.3,29.84,WNW,299,0.0,0.0,87,0.00,OVC,,0.00,WeatherDisplay:10.37,2013-01-22 03:20:00,
2013-01-21 22:25:00,19.4,16.2,29.83,WNW,299,0.0,0.0,87,0.00,OVC,,0.00,WeatherDisplay:10.37,2013-01-22 03:25:00,
2013-01-21 22:29:00,20.6,17.3,29.83,WNW,299,0.0,0.0,87,0.00,OVC,,0.00,WeatherDisplay:10.37,2013-01-22 03:29:00,
2013-01-21 22:35:00,20.8,17.5,29.83,WNW,299,0.0,0.0,87,0.00,OVC,,0.00,WeatherDisplay:10.37,2013-01-22 03:35:00,
2013-01-21 22:45:00,20.8,17.6,29.83,WNW,299,0.0,0.0,87,0.00,OVC,,0.00,WeatherDisplay:10.37,2013-01-22 03:45:00,
2013-01-21 22:50:00,21.2,17.9,29.83,WNW,299,0.0,0.0,87,0.00,OVC,,0.00,WeatherDisplay:10.37,2013-01-22 03:50:00,
2013-01-21 22:54:00,19.7,16.5,29.82,WNW,299,0.0,0.0,87,0.00,OVC,,0.00,WeatherDisplay:10.37,2013-01-22 03:54:00,
2013-01-21 22:59:00,21.3,18.0,29.82,WNW,299,0.0,0.0,87,0.00,OVC,,0.00,WeatherDisplay:10.37,2013-01-22 03:59:00,
2013-01-21 23:04:00,20.3,17.3,29.82,WNW,299,0.0,0.0,88,0.00,OVC,,0.00,WeatherDisplay:10.37,2013-01-22 04:04:00,
2013-01-21 23:10:00,21.0,18.0,29.82,WNW,299,0.0,0.0,88,0.00,OVC,,0.00,WeatherDisplay:10.37,2013-01-22 04:10:00,
2013-01-21 23:14:00,21.4,18.4,29.82,WNW,299,0.0,0.0,88,0.00,OVC,,0.00,WeatherDisplay:10.37,2013-01-22 04:14:00,
2013-01-21 23:20:00,20.5,17.5,29.81,WNW,299,0.0,0.0,88,0.00,OVC,,0.00,WeatherDisplay:10.37,2013-01-22 04:20:00,
2013-01-21 23:24:00,21.1,18.1,29.82,WNW,299,0.0,0.0,88,0.00,OVC,,0.00,WeatherDisplay:10.37,2013-01-22 04:24:00,
2013-01-21 23:30:00,21.6,18.6,29.81,WNW,299,0.0,0.0,88,0.00,OVC,,0.00,WeatherDisplay:10.37,2013-01-22 04:30:00,
2013-01-21 23:34:00,20.9,17.9,29.81,WNW,299,0.0,0.0,88,0.00,OVC,,0.00,WeatherDisplay:10.37,2013-01-22 04:34:00,
2013-01-21 23:40:00,20.1,17.1,29.81,NNW,332,0.0,0.0,88,0.00,OVC,,0.00,WeatherDisplay:10.37,2013-01-22 04:40:00,
2013-01-21 23:44:00,21.8,18.8,29.80,North,5,0.0,0.0,88,0.00,OVC,,0.00,WeatherDisplay:10.37,2013-01-22 04:44:00,
2013-01-21 23:49:00,22.0,19.0,29.80,North,6,0.0,0.0,88,0.00,OVC,,0.00,WeatherDisplay:10.37,2013-01-22 04:49:00,
2013-01-21 23:54:00,19.8,16.8,29.79,North,6,0.0,0.0,88,0.00,OVC,,0.00,WeatherDisplay:10.37,2013-01-22 04:54:00,